"Period start","avg(HW err(1)/warn(2) (#))","avg(Visibility (m))","avg(Weather code (#))","avg(Precip intensity (mm/h))","min(HW err(1)/warn(2) (#))","max(HW err(1)/warn(2) (#))","std(HW err(1)/warn(2) (#))","med(HW err(1)/warn(2) (#))","min(Visibility (m))","max(Visibility (m))","std(Visibility (m))","med(Visibility (m))","min(Weather code (#))","max(Weather code (#))","std(Weather code (#))","med(Weather code (#))","min(Precip intensity (mm/h))","max(Precip intensity (mm/h))","std(Precip intensity (mm/h))","med(Precip intensity (mm/h))"
2013-08-26 00:00:00,2,49606,0,0.00,2,2,0,2,47749,50000,716,50000,0,0,0,0,0.00,0.00,0.00,0.00
2013-08-26 00:10:00,2,46481,0,0.00,2,2,0,2,36013,50000,4746,49365,0,0,0,0,0.00,0.00,0.00,0.00
2013-08-26 00:20:00,2,47134,0,0.00,2,2,0,2,39007,50000,3842,49112,0,0,0,0,0.00,0.00,0.00,0.00
2013-08-26 00:30:00,2,49404,0,0.00,2,2,0,2,44040,50000,1788,50000,0,0,0,0,0.00,0.00,0.00,0.00
2013-08-26 00:40:00,2,46770,0,0.00,2,2,0,2,41754,50000,3273,47960,0,0,0,0,0.00,0.00,0.00,0.00
2013-08-26 00:50:00,2,42872,0,0.00,2,2,0,2,28862,50000,6461,44825,0,0,0,0,0.00,0.00,0.00,0.00
2013-08-26 01:00:00,2,48912,0,0.00,2,2,0,2,44706,50000,1979,50000,0,0,0,0,0.00,0.00,0.00,0.00
2013-08-26 01:10:00,2,47675,0,0.00,2,2,0,2,42043,50000,3303,50000,0,0,0,0,0.00,0.00,0.00,0.00
2013-08-26 01:20:00,2,46308,0,0.00,2,2,0,2,38933,50000,4005,48629,0,0,0,0,0.00,0.00,0.00,0.00
2013-08-26 01:30:00,2,47501,0,0.00,2,2,0,2,34592,50000,5018,50000,0,0,0,0,0.00,0.00,0.00,0.00
2013-08-26 01:40:00,2,47101,0,0.00,2,2,0,2,37385,50000,4034,49502,0,0,0,0,0.00,0.00,0.00,0.00
2013-08-26 01:50:00,2,49286,0,0.00,2,2,0,2,45292,50000,1454,50000,0,0,0,0,0.00,0.00,0.00,0.00
2013-08-26 02:00:00,2,48154,0,0.00,2,2,0,2,42165,50000,2546,49300,0,0,0,0,0.00,0.00,0.00,0.00
2013-08-26 02:10:00,2,47433,0,0.00,2,2,0,2,37142,50000,3930,49514,0,0,0,0,0.00,0.00,0.00,0.00
2013-08-26 02:20:00,2,48861,0,0.00,2,2,0,2,44603,50000,1792,50000,0,0,0,0,0.00,0.00,0.00,0.00
2013-08-26 02:30:00,2,48808,0,0.00,2,2,0,2,44141,50000,1820,50000,0,0,0,0,0.00,0.00,0.00,0.00
2013-08-26 02:40:00,2,49441,0,0.00,2,2,0,2,46273,50000,1136,50000,0,0,0,0,0.00,0.00,0.00,0.00
2013-08-26 02:50:00,2,47414,0,0.00,2,2,0,2,36810,50000,4011,50000,0,0,0,0,0.00,0.00,0.00,0.00
2013-08-26 03:00:00,2,47425,0,0.00,2,2,0,2,38787,50000,3646,50000,0,0,0,0,0.00,0.00,0.00,0.00
2013-08-26 03:10:00,2,47868,0,0.00,2,2,0,2,33877,50000,4780,50000,0,0,0,0,0.00,0.00,0.00,0.00
2013-08-26 03:20:00,2,48350,0,0.00,2,2,0,2,42908,50000,2542,50000,0,0,0,0,0.00,0.00,0.00,0.00
2013-08-26 03:30:00,2,45346,0,0.00,2,2,0,2,39210,50000,4163,46678,0,0,0,0,0.00,0.00,0.00,0.00
2013-08-26 03:40:00,2,47921,0,0.00,2,2,0,2,40766,50000,3349,49960,0,0,0,0,0.00,0.00,0.00,0.00
2013-08-26 03:50:00,2,41663,0,0.00,2,2,0,2,28927,50000,6454,41738,0,0,0,0,0.00,0.00,0.00,0.00
2013-08-26 04:00:00,2,46012,0,0.00,2,2,0,2,29744,50000,6268,49436,0,0,0,0,0.00,0.00,0.00,0.00
2013-08-26 04:10:00,2,45589,0,0.00,2,2,0,2,36176,50000,4161,45639,0,0,0,0,0.00,0.00,0.00,0.00
2013-08-26 04:20:00,2,47746,0,0.00,2,2,0,2,44552,50000,1778,47672,0,0,0,0,0.00,0.00,0.00,0.00
2013-08-26 04:30:00,2,44951,0,0.00,2,2,0,2,32221,50000,6535,48385,0,0,0,0,0.00,0.00,0.00,0.00
2013-08-26 04:40:00,2,47465,0,0.00,2,2,0,2,42571,50000,2251,47663,0,0,0,0,0.00,0.00,0.00,0.00
2013-08-26 04:50:00,2,46650,0,0.00,2,2,0,2,41723,50000,3571,48324,0,0,0,0,0.00,0.00,0.00,0.00
2013-08-26 05:00:00,2,47183,0,0.00,2,2,0,2,43814,50000,2302,46714,0,0,0,0,0.00,0.00,0.00,0.00
2013-08-26 05:10:00,2,48868,0,0.00,2,2,0,2,43647,50000,1997,50000,0,0,0,0,0.00,0.00,0.00,0.00
2013-08-26 05:20:00,2,47509,0,0.00,2,2,0,2,42954,50000,2773,49108,0,0,0,0,0.00,0.00,0.00,0.00
2013-08-26 05:30:00,2,46218,0,0.00,2,2,0,2,38434,50000,4181,48048,0,0,0,0,0.00,0.00,0.00,0.00
2013-08-26 05:40:00,2,47493,0,0.00,2,2,0,2,39021,50000,3332,49090,0,0,0,0,0.00,0.00,0.00,0.00
2013-08-26 05:50:00,2,45077,0,0.00,2,2,0,2,29521,50000,5936,45620,0,0,0,0,0.00,0.00,0.00,0.00
2013-08-26 06:00:00,2,46290,0,0.00,2,2,0,2,39749,50000,2893,45992,0,0,0,0,0.00,0.00,0.00,0.00
2013-08-26 06:10:00,2,49195,0,0.00,2,2,0,2,46878,50000,1165,50000,0,0,0,0,0.00,0.00,0.00,0.00
2013-08-26 06:20:00,2,47112,0,0.00,2,2,0,2,40293,50000,3076,47299,0,0,0,0,0.00,0.00,0.00,0.00
2013-08-26 06:30:00,2,48737,0,0.00,2,2,0,2,39801,50000,3044,50000,0,0,0,0,0.00,0.00,0.00,0.00
2013-08-26 06:40:00,2,47596,0,0.00,2,2,0,2,36395,50000,4401,50000,0,0,0,0,0.00,0.00,0.00,0.00
2013-08-26 06:50:00,2,42477,0,0.00,2,2,0,2,30568,50000,6977,44634,0,0,0,0,0.00,0.00,0.00,0.00
2013-08-26 07:00:00,2,46115,0,0.00,2,2,0,2,29907,50000,5756,47386,0,0,0,0,0.00,0.00,0.00,0.00
2013-08-26 07:10:00,2,42512,0,0.00,2,2,0,2,33662,50000,6051,43068,0,0,0,0,0.00,0.00,0.00,0.00
2013-08-26 07:20:00,2,42476,0,0.00,2,2,0,2,35326,50000,3726,42378,0,0,0,0,0.00,0.00,0.00,0.00
2013-08-26 07:30:00,2,48012,0,0.00,2,2,0,2,39313,50000,3835,50000,0,0,0,0,0.00,0.00,0.00,0.00
2013-08-26 07:40:00,2,48059,0,0.00,2,2,0,2,43737,50000,1897,48510,0,0,0,0,0.00,0.00,0.00,0.00
2013-08-26 07:50:00,2,49696,0,0.00,2,2,0,2,46960,50000,912,50000,0,0,0,0,0.00,0.00,0.00,0.00
2013-08-26 08:00:00,2,41943,0,0.00,2,2,0,2,34713,50000,5274,41432,0,0,0,0,0.00,0.00,0.00,0.00
2013-08-26 08:10:00,2,47009,0,0.00,2,2,0,2,38002,50000,4332,48983,0,0,0,0,0.00,0.00,0.00,0.00
2013-08-26 08:20:00,2,45283,0,0.00,2,2,0,2,39380,50000,3802,44751,0,0,0,0,0.00,0.00,0.00,0.00
2013-08-26 08:30:00,2,48489,0,0.00,2,2,0,2,44274,50000,1907,49388,0,0,0,0,0.00,0.00,0.00,0.00
2013-08-26 08:40:00,2,49629,0,0.00,2,2,0,2,47225,50000,816,50000,0,0,0,0,0.00,0.00,0.00,0.00
2013-08-26 08:50:00,2,44037,0,0.00,2,2,0,2,34849,50000,5398,45694,0,0,0,0,0.00,0.00,0.00,0.00
2013-08-26 09:00:00,2,45763,0,0.00,2,2,0,2,35890,50000,4714,47312,0,0,0,0,0.00,0.00,0.00,0.00
2013-08-26 09:10:00,2,45236,0,0.00,2,2,0,2,32022,50000,5413,46329,0,0,0,0,0.00,0.00,0.00,0.00
2013-08-26 09:20:00,2,47418,0,0.00,2,2,0,2,42648,50000,2395,47465,0,0,0,0,0.00,0.00,0.00,0.00
2013-08-26 09:30:00,2,45141,0,0.00,2,2,0,2,30094,50000,6198,46572,0,0,0,0,0.00,0.00,0.00,0.00
2013-08-26 09:40:00,2,46865,0,0.00,2,2,0,2,40441,50000,3446,47954,0,0,0,0,0.00,0.00,0.00,0.00
2013-08-26 09:50:00,2,47893,0,0.00,2,2,0,2,43311,50000,2263,48627,0,0,0,0,0.00,0.00,0.00,0.00
2013-08-26 10:00:00,2,48268,0,0.00,2,2,0,2,45191,50000,1561,48596,0,0,0,0,0.00,0.00,0.00,0.00
2013-08-26 10:10:00,2,44464,0,0.00,2,2,0,2,30994,50000,5891,46646,0,0,0,0,0.00,0.00,0.00,0.00
2013-08-26 10:20:00,2,44654,0,0.00,2,2,0,2,35422,50000,4835,45708,0,0,0,0,0.00,0.00,0.00,0.00
2013-08-26 10:30:00,2,49451,0,0.00,2,2,0,2,47346,50000,812,49774,0,0,0,0,0.00,0.00,0.00,0.00
2013-08-26 10:40:00,2,49351,0,0.00,2,2,0,2,45862,50000,1276,50000,0,0,0,0,0.00,0.00,0.00,0.00
2013-08-26 10:50:00,2,50000,0,0.00,2,2,0,2,50000,50000,0,50000,0,0,0,0,0.00,0.00,0.00,0.00
2013-08-26 11:00:00,2,50000,0,0.00,2,2,0,2,50000,50000,0,50000,0,0,0,0,0.00,0.00,0.00,0.00
2013-08-26 11:10:00,2,49360,0,0.00,2,2,0,2,46301,50000,1159,50000,0,0,0,0,0.00,0.00,0.00,0.00
2013-08-26 11:20:00,2,50000,0,0.00,2,2,0,2,50000,50000,0,50000,0,0,0,0,0.00,0.00,0.00,0.00
2013-08-26 11:30:00,2,50000,0,0.00,2,2,0,2,50000,50000,0,50000,0,0,0,0,0.00,0.00,0.00,0.00
2013-08-26 11:40:00,2,49995,0,0.00,2,2,0,2,49948,50000,16,50000,0,0,0,0,0.00,0.00,0.00,0.00
2013-08-26 11:50:00,2,50000,0,0.00,2,2,0,2,50000,50000,0,50000,0,0,0,0,0.00,0.00,0.00,0.00
2013-08-26 12:00:00,2,50000,0,0.00,2,2,0,2,50000,50000,0,50000,0,0,0,0,0.00,0.00,0.00,0.00
2013-08-26 12:10:00,2,50000,0,0.00,2,2,0,2,50000,50000,0,50000,0,0,0,0,0.00,0.00,0.00,0.00
2013-08-26 12:20:00,2,50000,0,0.00,2,2,0,2,50000,50000,0,50000,0,0,0,0,0.00,0.00,0.00,0.00
2013-08-26 12:30:00,2,50000,0,0.00,2,2,0,2,50000,50000,0,50000,0,0,0,0,0.00,0.00,0.00,0.00
2013-08-26 12:40:00,2,50000,0,0.00,2,2,0,2,50000,50000,0,50000,0,0,0,0,0.00,0.00,0.00,0.00
2013-08-26 12:50:00,2,50000,0,0.00,2,2,0,2,50000,50000,0,50000,0,0,0,0,0.00,0.00,0.00,0.00
2013-08-26 13:00:00,2,50000,0,0.00,2,2,0,2,50000,50000,0,50000,0,0,0,0,0.00,0.00,0.00,0.00
2013-08-26 13:10:00,2,50000,0,0.00,2,2,0,2,50000,50000,0,50000,0,0,0,0,0.00,0.00,0.00,0.00
2013-08-26 13:20:00,2,50000,0,0.00,2,2,0,2,50000,50000,0,50000,0,0,0,0,0.00,0.00,0.00,0.00
2013-08-26 13:30:00,2,50000,0,0.00,2,2,0,2,50000,50000,0,50000,0,0,0,0,0.00,0.00,0.00,0.00
2013-08-26 13:40:00,2,50000,0,0.00,2,2,0,2,50000,50000,0,50000,0,0,0,0,0.00,0.00,0.00,0.00
2013-08-26 13:50:00,2,49751,0,0.00,2,2,0,2,47812,50000,653,50000,0,0,0,0,0.00,0.00,0.00,0.00
2013-08-26 14:00:00,2,50000,0,0.00,2,2,0,2,50000,50000,0,50000,0,0,0,0,0.00,0.00,0.00,0.00
2013-08-26 14:10:00,2,49837,0,0.00,2,2,0,2,48870,50000,355,50000,0,0,0,0,0.00,0.00,0.00,0.00
2013-08-26 14:20:00,2,50000,0,0.00,2,2,0,2,50000,50000,0,50000,0,0,0,0,0.00,0.00,0.00,0.00
2013-08-26 14:30:00,2,49981,0,0.00,2,2,0,2,49811,50000,57,50000,0,0,0,0,0.00,0.00,0.00,0.00
2013-08-26 14:40:00,2,50000,0,0.00,2,2,0,2,50000,50000,0,50000,0,0,0,0,0.00,0.00,0.00,0.00
2013-08-26 14:50:00,2,49874,0,0.00,2,2,0,2,48736,50000,379,50000,0,0,0,0,0.00,0.00,0.00,0.00
2013-08-26 15:00:00,2,50000,0,0.00,2,2,0,2,50000,50000,0,50000,0,0,0,0,0.00,0.00,0.00,0.00
2013-08-26 15:10:00,2,49984,0,0.00,2,2,0,2,49844,50000,47,50000,0,0,0,0,0.00,0.00,0.00,0.00
2013-08-26 15:20:00,2,50000,0,0.00,2,2,0,2,50000,50000,0,50000,0,0,0,0,0.00,0.00,0.00,0.00
2013-08-26 15:30:00,2,49757,0,0.00,2,2,0,2,48742,50000,486,50000,0,0,0,0,0.00,0.00,0.00,0.00
2013-08-26 15:40:00,2,50000,0,0.00,2,2,0,2,50000,50000,0,50000,0,0,0,0,0.00,0.00,0.00,0.00
2013-08-26 15:50:00,2,50000,0,0.00,2,2,0,2,50000,50000,0,50000,0,0,0,0,0.00,0.00,0.00,0.00
2013-08-26 16:00:00,2,50000,0,0.00,2,2,0,2,50000,50000,0,50000,0,0,0,0,0.00,0.00,0.00,0.00
2013-08-26 16:10:00,2,49711,0,0.00,2,2,0,2,47806,50000,668,50000,0,0,0,0,0.00,0.00,0.00,0.00
2013-08-26 16:20:00,2,49850,0,0.00,2,2,0,2,48496,50000,451,50000,0,0,0,0,0.00,0.00,0.00,0.00
2013-08-26 16:30:00,2,50000,0,0.00,2,2,0,2,50000,50000,0,50000,0,0,0,0,0.00,0.00,0.00,0.00
2013-08-26 16:40:00,2,50000,0,0.00,2,2,0,2,50000,50000,0,50000,0,0,0,0,0.00,0.00,0.00,0.00
2013-08-26 16:50:00,2,50000,0,0.00,2,2,0,2,50000,50000,0,50000,0,0,0,0,0.00,0.00,0.00,0.00
2013-08-26 17:00:00,2,50000,0,0.00,2,2,0,2,50000,50000,0,50000,0,0,0,0,0.00,0.00,0.00,0.00
2013-08-26 17:10:00,2,50000,0,0.00,2,2,0,2,50000,50000,0,50000,0,0,0,0,0.00,0.00,0.00,0.00
2013-08-26 17:20:00,2,50000,0,0.00,2,2,0,2,50000,50000,0,50000,0,0,0,0,0.00,0.00,0.00,0.00
2013-08-26 17:30:00,2,50000,0,0.00,2,2,0,2,50000,50000,0,50000,0,0,0,0,0.00,0.00,0.00,0.00
2013-08-26 17:40:00,2,50000,0,0.00,2,2,0,2,50000,50000,0,50000,0,0,0,0,0.00,0.00,0.00,0.00
2013-08-26 17:50:00,2,50000,0,0.00,2,2,0,2,50000,50000,0,50000,0,0,0,0,0.00,0.00,0.00,0.00
2013-08-26 18:00:00,2,50000,0,0.00,2,2,0,2,50000,50000,0,50000,0,0,0,0,0.00,0.00,0.00,0.00
2013-08-26 18:10:00,2,50000,0,0.00,2,2,0,2,50000,50000,0,50000,0,0,0,0,0.00,0.00,0.00,0.00
2013-08-26 18:20:00,2,49897,0,0.00,2,2,0,2,48968,50000,310,50000,0,0,0,0,0.00,0.00,0.00,0.00
2013-08-26 18:30:00,2,49564,0,0.00,2,2,0,2,47551,50000,880,50000,0,0,0,0,0.00,0.00,0.00,0.00
2013-08-26 18:40:00,2,49822,0,0.00,2,2,0,2,48994,50000,326,50000,0,0,0,0,0.00,0.00,0.00,0.00
2013-08-26 18:50:00,2,49867,0,0.00,2,2,0,2,48669,50000,399,50000,0,0,0,0,0.00,0.00,0.00,0.00
2013-08-26 19:00:00,2,50000,0,0.00,2,2,0,2,50000,50000,0,50000,0,0,0,0,0.00,0.00,0.00,0.00
2013-08-26 19:10:00,2,50000,0,0.00,2,2,0,2,50000,50000,0,50000,0,0,0,0,0.00,0.00,0.00,0.00
2013-08-26 19:20:00,2,48852,0,0.00,2,2,0,2,45632,50000,1733,50000,0,0,0,0,0.00,0.00,0.00,0.00
2013-08-26 19:30:00,2,49688,0,0.00,2,2,0,2,48513,50000,508,50000,0,0,0,0,0.00,0.00,0.00,0.00
2013-08-26 19:40:00,2,49852,0,0.00,2,2,0,2,49241,50000,281,50000,0,0,0,0,0.00,0.00,0.00,0.00
2013-08-26 19:50:00,2,49784,0,0.00,2,2,0,2,48568,50000,460,50000,0,0,0,0,0.00,0.00,0.00,0.00
2013-08-26 20:00:00,2,49931,0,0.00,2,2,0,2,49515,50000,152,50000,0,0,0,0,0.00,0.00,0.00,0.00
2013-08-26 20:10:00,2,48920,0,0.00,2,2,0,2,45827,50000,1464,50000,0,0,0,0,0.00,0.00,0.00,0.00
2013-08-26 20:20:00,2,49400,0,0.00,2,2,0,2,46294,50000,1132,50000,0,0,0,0,0.00,0.00,0.00,0.00
2013-08-26 20:30:00,2,47042,0,0.00,2,2,0,2,42439,50000,2476,46664,0,0,0,0,0.00,0.00,0.00,0.00
2013-08-26 20:40:00,2,39759,0,0.00,2,2,0,2,34399,47559,3513,40344,0,0,0,0,0.00,0.00,0.00,0.00
2013-08-26 20:50:00,2,31527,0,0.00,2,2,0,2,21455,44115,7689,28604,0,0,0,0,0.00,0.00,0.00,0.00
2013-08-26 21:00:00,2,34011,0,0.00,2,2,0,2,22936,44221,7388,32868,0,0,0,0,0.00,0.00,0.00,0.00
2013-08-26 21:10:00,2,34520,0,0.00,2,2,0,2,19571,44049,8464,38259,0,0,0,0,0.00,0.00,0.00,0.00
2013-08-26 21:20:00,2,37047,0,0.00,2,2,0,2,33337,42073,3037,35588,0,0,0,0,0.00,0.00,0.00,0.00
2013-08-26 21:30:00,2,42989,0,0.00,2,2,0,2,34450,49973,5002,43179,0,0,0,0,0.00,0.00,0.00,0.00
2013-08-26 21:40:00,2,46949,0,0.00,2,2,0,2,41434,50000,2728,47172,0,0,0,0,0.00,0.00,0.00,0.00
2013-08-26 21:50:00,2,37266,0,0.00,2,2,0,2,11541,49247,12232,42866,0,0,0,0,0.00,0.00,0.00,0.00
2013-08-26 22:00:00,2,43121,0,0.00,2,2,0,2,21009,50000,9905,47070,0,0,0,0,0.00,0.00,0.00,0.00
2013-08-26 22:10:00,2,36914,0,0.00,2,2,0,2,19381,50000,8838,35420,0,0,0,0,0.00,0.00,0.00,0.00
2013-08-26 22:20:00,2,24559,0,0.00,2,2,0,2,8585,34792,7563,25984,0,0,0,0,0.00,0.00,0.00,0.00
2013-08-26 22:30:00,2,28865,0,0.00,2,2,0,2,11516,44872,10525,26296,0,0,0,0,0.00,0.00,0.00,0.00
2013-08-26 22:40:00,2,15558,0,0.00,2,2,0,2,8818,26689,5573,13808,0,0,0,0,0.00,0.00,0.00,0.00
2013-08-26 22:50:00,2,26510,0,0.00,2,2,0,2,15504,40201,7515,25706,0,0,0,0,0.00,0.00,0.00,0.00
2013-08-26 23:00:00,2,24324,0,0.00,2,2,0,2,6242,47268,14949,21322,0,0,0,0,0.00,0.00,0.00,0.00
2013-08-26 23:10:00,2,25584,0,0.00,2,2,0,2,19694,35427,4694,24374,0,0,0,0,0.00,0.00,0.00,0.00
2013-08-26 23:20:00,2,24305,0,0.00,2,2,0,2,5136,44050,14986,24551,0,0,0,0,0.00,0.00,0.00,0.00
2013-08-26 23:30:00,2,49540,0,0.00,2,2,0,2,47669,50000,750,50000,0,0,0,0,0.00,0.00,0.00,0.00
2013-08-26 23:40:00,2,44572,0,0.00,2,2,0,2,39214,50000,4407,43891,0,0,0,0,0.00,0.00,0.00,0.00
2013-08-26 23:50:00,2,29927,0,0.00,2,2,0,2,8595,50000,14856,30488,0,0,0,0,0.00,0.00,0.00,0.00
